Time,TemperatureF,DewpointF,PressureIn,WindDirection,WindDirectionDegrees,WindSpeedMPH,WindSpeedGustMPH,Humidity,HourlyPrecipIn,Conditions,Clouds,dailyrainin,SolarRadiationWatts/m^2,SoftwareType,DateUTC
2013-12-26 00:01:00,36.7,24.1,30.32,North,-999,-999.0,-999.0,60,0.00,,,0.00,0.0,meteohub,2013-12-26 05:01:00,
2013-12-26 00:02:00,36.7,24.1,30.32,North,-999,-999.0,-999.0,60,0.00,,,0.00,0.0,meteohub,2013-12-26 05:02:00,
2013-12-26 00:03:00,36.7,23.7,30.32,North,-999,-999.0,-999.0,59,0.00,,,0.00,0.0,meteohub,2013-12-26 05:03:00,
2013-12-26 00:04:00,36.7,23.7,30.32,North,-999,-999.0,-999.0,59,0.00,,,0.00,0.0,meteohub,2013-12-26 05:04:00,
2013-12-26 00:10:00,36.7,24.1,30.32,North,-999,-999.0,-999.0,60,0.00,,,0.00,0.0,meteohub,2013-12-26 05:10:00,
2013-12-26 00:15:00,36.5,23.9,30.31,North,-999,-999.0,-999.0,60,0.00,,,0.00,0.0,meteohub,2013-12-26 05:15:00,
2013-12-26 00:20:00,36.3,23.7,30.32,North,-999,-999.0,-999.0,60,0.00,,,0.00,0.0,meteohub,2013-12-26 05:20:00,
2013-12-26 00:25:00,36.1,23.5,30.31,North,-999,-999.0,-999.0,60,0.00,,,0.00,0.0,meteohub,2013-12-26 05:25:00,
2013-12-26 00:30:00,36.1,24.1,30.31,North,-999,-999.0,-999.0,61,0.00,,,0.00,0.0,meteohub,2013-12-26 05:30:00,
2013-12-26 00:35:00,36.0,23.9,30.31,North,-999,-999.0,-999.0,61,0.00,,,0.00,0.0,meteohub,2013-12-26 05:35:00,
2013-12-26 00:40:00,36.1,24.1,30.31,North,-999,-999.0,-999.0,61,0.00,,,0.00,0.0,meteohub,2013-12-26 05:40:00,
2013-12-26 00:45:00,36.0,23.9,30.31,North,-999,-999.0,-999.0,61,0.00,,,0.00,0.0,meteohub,2013-12-26 05:45:00,
2013-12-26 00:50:00,36.0,23.9,30.31,North,-999,-999.0,-999.0,61,0.00,,,0.00,0.0,meteohub,2013-12-26 05:50:00,
2013-12-26 00:55:00,36.0,23.9,30.31,North,-999,-999.0,-999.0,61,0.00,,,0.00,0.0,meteohub,2013-12-26 05:55:00,
2013-12-26 01:00:00,36.0,24.3,30.31,North,-999,-999.0,-999.0,62,0.00,,,0.00,0.0,meteohub,2013-12-26 06:00:00,
2013-12-26 01:05:00,35.8,23.7,30.31,North,-999,-999.0,-999.0,61,0.00,,,0.00,0.0,meteohub,2013-12-26 06:05:00,
2013-12-26 01:10:00,35.6,23.9,30.31,North,-999,-999.0,-999.0,62,0.00,,,0.00,0.0,meteohub,2013-12-26 06:10:00,
2013-12-26 01:15:00,35.4,23.7,30.31,North,-999,-999.0,-999.0,62,0.00,,,0.00,0.0,meteohub,2013-12-26 06:15:00,
2013-12-26 01:20:00,35.2,23.9,30.31,North,-999,-999.0,-999.0,63,0.00,,,0.00,0.0,meteohub,2013-12-26 06:20:00,
2013-12-26 01:25:00,35.2,23.9,30.30,North,-999,-999.0,-999.0,63,0.00,,,0.00,0.0,meteohub,2013-12-26 06:25:00,
2013-12-26 01:31:00,35.2,23.9,30.30,North,-999,-999.0,-999.0,63,0.00,,,0.00,0.0,meteohub,2013-12-26 06:31:00,
2013-12-26 01:36:00,35.2,23.9,30.30,North,-999,-999.0,-999.0,63,0.00,,,0.00,0.0,meteohub,2013-12-26 06:36:00,
2013-12-26 01:41:00,35.2,23.9,30.31,North,-999,-999.0,-999.0,63,0.00,,,0.00,0.0,meteohub,2013-12-26 06:41:00,
2013-12-26 01:46:00,35.1,23.7,30.31,North,-999,-999.0,-999.0,63,0.00,,,0.00,0.0,meteohub,2013-12-26 06:46:00,
2013-12-26 01:51:00,35.1,23.7,30.31,North,-999,-999.0,-999.0,63,0.00,,,0.00,0.0,meteohub,2013-12-26 06:51:00,
2013-12-26 01:56:00,35.1,24.1,30.31,North,-999,-999.0,-999.0,64,0.00,,,0.00,0.0,meteohub,2013-12-26 06:56:00,
2013-12-26 02:01:00,35.2,23.9,30.31,North,-999,-999.0,-999.0,63,0.00,,,0.00,0.0,meteohub,2013-12-26 07:01:00,
2013-12-26 02:06:00,35.2,24.3,30.31,North,-999,-999.0,-999.0,64,0.00,,,0.00,0.0,meteohub,2013-12-26 07:06:00,
2013-12-26 02:11:00,35.4,24.4,30.31,North,-999,-999.0,-999.0,64,0.00,,,0.00,0.0,meteohub,2013-12-26 07:11:00,
2013-12-26 02:16:00,35.4,24.4,30.31,North,-999,-999.0,-999.0,64,0.00,,,0.00,0.0,meteohub,2013-12-26 07:16:00,
2013-12-26 02:21:00,35.6,24.6,30.31,North,-999,-999.0,-999.0,64,0.00,,,0.00,0.0,meteohub,2013-12-26 07:21:00,
2013-12-26 02:26:00,35.8,25.2,30.31,North,-999,-999.0,-999.0,65,0.00,,,0.00,0.0,meteohub,2013-12-26 07:26:00,
2013-12-26 02:31:00,35.8,25.2,30.31,North,-999,-999.0,-999.0,65,0.00,,,0.00,0.0,meteohub,2013-12-26 07:31:00,
2013-12-26 02:36:00,35.8,25.5,30.32,North,-999,-999.0,-999.0,66,0.00,,,0.00,0.0,meteohub,2013-12-26 07:36:00,
2013-12-26 02:41:00,35.8,25.5,30.32,North,-999,-999.0,-999.0,66,0.00,,,0.00,0.0,meteohub,2013-12-26 07:41:00,
2013-12-26 02:47:00,36.0,25.7,30.32,North,-999,-999.0,-999.0,66,0.00,,,0.00,0.0,meteohub,2013-12-26 07:47:00,
2013-12-26 02:52:00,36.0,26.1,30.32,North,-999,-999.0,-999.0,67,0.00,,,0.00,0.0,meteohub,2013-12-26 07:52:00,
2013-12-26 02:57:00,35.8,25.9,30.32,North,-999,-999.0,-999.0,67,0.00,,,0.00,0.0,meteohub,2013-12-26 07:57:00,
2013-12-26 03:02:00,35.8,25.9,30.32,North,-999,-999.0,-999.0,67,0.00,,,0.00,0.0,meteohub,2013-12-26 08:02:00,
2013-12-26 03:07:00,35.8,26.2,30.32,North,-999,-999.0,-999.0,68,0.00,,,0.00,0.0,meteohub,2013-12-26 08:07:00,
2013-12-26 03:12:00,35.8,26.2,30.32,North,-999,-999.0,-999.0,68,0.00,,,0.00,0.0,meteohub,2013-12-26 08:12:00,
2013-12-26 03:17:00,35.8,26.6,30.32,North,-999,-999.0,-999.0,69,0.00,,,0.00,0.0,meteohub,2013-12-26 08:17:00,
2013-12-26 03:22:00,35.8,26.6,30.32,North,-999,-999.0,-999.0,69,0.00,,,0.00,0.0,meteohub,2013-12-26 08:22:00,
2013-12-26 03:27:00,35.8,26.6,30.33,North,-999,-999.0,-999.0,69,0.00,,,0.00,0.0,meteohub,2013-12-26 08:27:00,
2013-12-26 03:32:00,35.8,26.6,30.33,North,-999,-999.0,-999.0,69,0.00,,,0.00,0.0,meteohub,2013-12-26 08:32:00,
2013-12-26 03:37:00,35.8,26.6,30.33,North,-999,-999.0,-999.0,69,0.00,,,0.00,0.0,meteohub,2013-12-26 08:37:00,
2013-12-26 03:42:00,35.8,27.0,30.33,North,-999,-999.0,-999.0,70,0.00,,,0.00,0.0,meteohub,2013-12-26 08:42:00,
2013-12-26 03:47:00,35.8,27.7,30.33,North,-999,-999.0,-999.0,72,0.00,,,0.00,0.0,meteohub,2013-12-26 08:47:00,
2013-12-26 03:52:00,35.8,27.7,30.33,North,-999,-999.0,-999.0,72,0.00,,,0.00,0.0,meteohub,2013-12-26 08:52:00,
2013-12-26 03:57:00,35.6,27.5,30.34,North,-999,-999.0,-999.0,72,0.00,,,0.00,0.0,meteohub,2013-12-26 08:57:00,
2013-12-26 04:02:00,35.6,27.9,30.34,North,-999,-999.0,-999.0,73,0.00,,,0.00,0.0,meteohub,2013-12-26 09:02:00,
2013-12-26 04:07:00,35.4,27.7,30.34,North,-999,-999.0,-999.0,73,0.00,,,0.00,0.0,meteohub,2013-12-26 09:07:00,
2013-12-26 04:12:00,35.4,27.7,30.34,North,-999,-999.0,-999.0,73,0.00,,,0.00,0.0,meteohub,2013-12-26 09:12:00,
2013-12-26 04:17:00,35.4,28.0,30.34,North,-999,-999.0,-999.0,74,0.00,,,0.00,0.0,meteohub,2013-12-26 09:17:00,
2013-12-26 04:22:00,35.2,27.9,30.33,North,-999,-999.0,-999.0,74,0.00,,,0.00,0.0,meteohub,2013-12-26 09:22:00,
2013-12-26 04:27:00,35.2,27.9,30.33,North,-999,-999.0,-999.0,74,0.00,,,0.00,0.0,meteohub,2013-12-26 09:27:00,
2013-12-26 04:32:00,35.2,28.0,30.33,North,-999,-999.0,-999.0,75,0.00,,,0.00,0.0,meteohub,2013-12-26 09:32:00,
2013-12-26 04:37:00,35.2,28.0,30.33,North,-999,-999.0,-999.0,75,0.00,,,0.00,0.0,meteohub,2013-12-26 09:37:00,
2013-12-26 04:42:00,35.2,28.0,30.33,North,-999,-999.0,-999.0,75,0.00,,,0.00,0.0,meteohub,2013-12-26 09:42:00,
2013-12-26 04:47:00,35.2,28.0,30.33,North,-999,-999.0,-999.0,75,0.00,,,0.00,0.0,meteohub,2013-12-26 09:47:00,
2013-12-26 04:52:00,35.2,28.4,30.33,North,-999,-999.0,-999.0,76,0.00,,,0.00,0.0,meteohub,2013-12-26 09:52:00,
2013-12-26 04:57:00,35.1,28.2,30.33,North,-999,-999.0,-999.0,76,0.00,,,0.00,0.0,meteohub,2013-12-26 09:57:00,
2013-12-26 05:02:00,35.1,28.2,30.33,North,-999,-999.0,-999.0,76,0.00,,,0.00,0.0,meteohub,2013-12-26 10:02:00,
2013-12-26 05:07:00,35.1,28.2,30.34,North,-999,-999.0,-999.0,76,0.00,,,0.00,0.0,meteohub,2013-12-26 10:07:00,
2013-12-26 05:12:00,35.1,28.6,30.34,North,-999,-999.0,-999.0,77,0.00,,,0.00,0.0,meteohub,2013-12-26 10:12:00,
2013-12-26 05:18:00,35.1,28.6,30.34,North,-999,-999.0,-999.0,77,0.00,,,0.00,0.0,meteohub,2013-12-26 10:18:00,
2013-12-26 05:23:00,34.9,28.4,30.35,North,-999,-999.0,-999.0,77,0.00,,,0.00,0.0,meteohub,2013-12-26 10:23:00,
2013-12-26 05:28:00,34.9,28.4,30.35,North,-999,-999.0,-999.0,77,0.00,,,0.00,0.0,meteohub,2013-12-26 10:28:00,
2013-12-26 05:33:00,34.9,28.8,30.35,North,-999,-999.0,-999.0,78,0.00,,,0.00,0.0,meteohub,2013-12-26 10:33:00,
2013-12-26 05:38:00,34.9,28.4,30.36,North,-999,-999.0,-999.0,77,0.00,,,0.00,0.0,meteohub,2013-12-26 10:38:00,
2013-12-26 05:43:00,34.9,28.4,30.36,North,-999,-999.0,-999.0,77,0.00,,,0.00,0.0,meteohub,2013-12-26 10:43:00,
2013-12-26 05:48:00,34.7,28.6,30.36,North,-999,-999.0,-999.0,78,0.00,,,0.00,0.0,meteohub,2013-12-26 10:48:00,
2013-12-26 05:53:00,34.7,28.6,30.37,North,-999,-999.0,-999.0,78,0.00,,,0.00,0.0,meteohub,2013-12-26 10:53:00,
2013-12-26 05:58:00,34.5,28.4,30.37,North,-999,-999.0,-999.0,78,0.00,,,0.00,0.0,meteohub,2013-12-26 10:58:00,
2013-12-26 06:03:00,34.5,28.4,30.38,North,-999,-999.0,-999.0,78,0.00,,,0.00,0.0,meteohub,2013-12-26 11:03:00,
2013-12-26 06:08:00,34.3,27.9,30.38,North,-999,-999.0,-999.0,77,0.00,,,0.00,0.0,meteohub,2013-12-26 11:08:00,
2013-12-26 06:13:00,34.3,28.2,30.38,North,-999,-999.0,-999.0,78,0.00,,,0.00,0.0,meteohub,2013-12-26 11:13:00,
2013-12-26 06:18:00,34.2,28.0,30.38,North,-999,-999.0,-999.0,78,0.00,,,0.00,0.0,meteohub,2013-12-26 11:18:00,
2013-12-26 06:23:00,34.2,28.0,30.39,North,-999,-999.0,-999.0,78,0.00,,,0.00,0.0,meteohub,2013-12-26 11:23:00,
2013-12-26 06:28:00,34.0,27.9,30.39,North,-999,-999.0,-999.0,78,0.00,,,0.00,0.0,meteohub,2013-12-26 11:28:00,
2013-12-26 06:33:00,34.0,28.2,30.39,North,-999,-999.0,-999.0,79,0.00,,,0.00,0.0,meteohub,2013-12-26 11:33:00,
2013-12-26 06:39:00,34.0,28.2,30.39,North,-999,-999.0,-999.0,79,0.00,,,0.00,0.0,meteohub,2013-12-26 11:39:00,
2013-12-26 06:44:00,33.8,28.0,30.40,North,-999,-999.0,-999.0,79,0.00,,,0.00,0.0,meteohub,2013-12-26 11:44:00,
2013-12-26 06:49:00,33.6,28.0,30.40,North,-999,-999.0,-999.0,80,0.00,,,0.00,0.0,meteohub,2013-12-26 11:49:00,
2013-12-26 06:54:00,33.6,28.0,30.40,North,-999,-999.0,-999.0,80,0.00,,,0.00,0.0,meteohub,2013-12-26 11:54:00,
2013-12-26 06:59:00,33.4,27.9,30.41,North,-999,-999.0,-999.0,80,0.00,,,0.00,0.0,meteohub,2013-12-26 11:59:00,
2013-12-26 07:04:00,33.4,27.9,30.41,North,-999,-999.0,-999.0,80,0.00,,,0.00,0.0,meteohub,2013-12-26 12:04:00,
2013-12-26 07:09:00,33.4,27.9,30.41,North,-999,-999.0,-999.0,80,0.00,,,0.00,0.0,meteohub,2013-12-26 12:09:00,
2013-12-26 07:14:00,33.4,27.9,30.41,North,-999,-999.0,-999.0,80,0.00,,,0.00,0.0,meteohub,2013-12-26 12:14:00,
2013-12-26 07:19:00,33.3,27.7,30.41,North,-999,-999.0,-999.0,80,0.00,,,0.00,0.0,meteohub,2013-12-26 12:19:00,
2013-12-26 07:24:00,33.3,27.7,30.42,North,-999,-999.0,-999.0,80,0.00,,,0.00,0.0,meteohub,2013-12-26 12:24:00,
2013-12-26 07:29:00,33.3,27.5,30.42,North,-999,-999.0,-999.0,79,0.00,,,0.00,0.0,meteohub,2013-12-26 12:29:00,
2013-12-26 07:34:00,33.1,27.3,30.42,North,-999,-999.0,-999.0,79,0.00,,,0.00,0.0,meteohub,2013-12-26 12:34:00,
2013-12-26 07:39:00,33.1,27.3,30.42,North,-999,-999.0,-999.0,79,0.00,,,0.00,0.0,meteohub,2013-12-26 12:39:00,
2013-12-26 07:44:00,33.1,27.3,30.42,North,-999,-999.0,-999.0,79,0.00,,,0.00,0.0,meteohub,2013-12-26 12:44:00,
2013-12-26 07:50:00,32.9,27.1,30.42,North,-999,-999.0,-999.0,79,0.00,,,0.00,0.0,meteohub,2013-12-26 12:50:00,
2013-12-26 07:55:00,32.5,26.8,30.43,North,-999,-999.0,-999.0,79,0.00,,,0.00,5.0,meteohub,2013-12-26 12:55:00,
2013-12-26 08:00:00,32.4,27.0,30.43,North,-999,-999.0,-999.0,80,0.00,,,0.00,7.0,meteohub,2013-12-26 13:00:00,
2013-12-26 08:02:00,32.2,26.8,30.43,North,-999,-999.0,-999.0,80,0.00,,,0.00,7.0,meteohub,2013-12-26 13:02:00,
2013-12-26 08:07:00,32.0,26.8,30.43,North,-999,-999.0,-999.0,81,0.00,,,0.00,11.0,meteohub,2013-12-26 13:07:00,
2013-12-26 08:12:00,31.6,26.4,30.43,North,-999,-999.0,-999.0,81,0.00,,,0.00,12.0,meteohub,2013-12-26 13:12:00,
2013-12-26 08:17:00,31.6,26.4,30.43,North,-999,-999.0,-999.0,81,0.00,,,0.00,18.0,meteohub,2013-12-26 13:17:00,
2013-12-26 08:22:00,31.5,26.2,30.43,North,-999,-999.0,-999.0,81,0.00,,,0.00,19.0,meteohub,2013-12-26 13:22:00,
2013-12-26 08:27:00,31.3,26.4,30.44,North,-999,-999.0,-999.0,82,0.00,,,0.00,23.0,meteohub,2013-12-26 13:27:00,
2013-12-26 08:33:00,31.5,26.6,30.44,North,-999,-999.0,-999.0,82,0.00,,,0.00,26.0,meteohub,2013-12-26 13:33:00,
2013-12-26 08:38:00,31.3,26.4,30.45,North,-999,-999.0,-999.0,82,0.00,,,0.00,35.0,meteohub,2013-12-26 13:38:00,
2013-12-26 08:43:00,31.5,26.6,30.45,North,-999,-999.0,-999.0,82,0.00,,,0.00,65.0,meteohub,2013-12-26 13:43:00,
2013-12-26 08:48:00,31.6,26.8,30.45,North,-999,-999.0,-999.0,82,0.00,,,0.00,58.0,meteohub,2013-12-26 13:48:00,
2013-12-26 08:53:00,32.0,26.8,30.45,North,-999,-999.0,-999.0,81,0.00,,,0.00,47.0,meteohub,2013-12-26 13:53:00,
2013-12-26 08:58:00,32.4,27.1,30.45,North,-999,-999.0,-999.0,81,0.00,,,0.00,49.0,meteohub,2013-12-26 13:58:00,
2013-12-26 09:03:00,32.5,27.1,30.45,North,-999,-999.0,-999.0,80,0.00,,,0.00,67.0,meteohub,2013-12-26 14:03:00,
2013-12-26 09:08:00,32.5,27.1,30.45,North,-999,-999.0,-999.0,80,0.00,,,0.00,69.0,meteohub,2013-12-26 14:08:00,
2013-12-26 09:13:00,32.7,27.3,30.45,North,-999,-999.0,-999.0,80,0.00,,,0.00,88.0,meteohub,2013-12-26 14:13:00,
2013-12-26 09:18:00,33.1,27.3,30.46,North,-999,-999.0,-999.0,79,0.00,,,0.00,79.0,meteohub,2013-12-26 14:18:00,
2013-12-26 09:23:00,33.1,27.0,30.46,North,-999,-999.0,-999.0,78,0.00,,,0.00,118.0,meteohub,2013-12-26 14:23:00,
2013-12-26 09:28:00,33.4,27.3,30.46,North,-999,-999.0,-999.0,78,0.00,,,0.00,109.0,meteohub,2013-12-26 14:28:00,
2013-12-26 09:33:00,33.6,26.8,30.46,North,-999,-999.0,-999.0,76,0.00,,,0.00,153.0,meteohub,2013-12-26 14:33:00,
2013-12-26 09:38:00,33.8,26.8,30.47,North,-999,-999.0,-999.0,75,0.00,,,0.00,123.0,meteohub,2013-12-26 14:38:00,
2013-12-26 09:43:00,34.0,26.6,30.47,North,-999,-999.0,-999.0,74,0.00,,,0.00,167.0,meteohub,2013-12-26 14:43:00,
2013-12-26 09:48:00,33.8,26.8,30.47,North,-999,-999.0,-999.0,75,0.00,,,0.00,142.0,meteohub,2013-12-26 14:48:00,
2013-12-26 09:54:00,34.0,27.0,30.47,North,-999,-999.0,-999.0,75,0.00,,,0.00,149.0,meteohub,2013-12-26 14:54:00,
2013-12-26 09:59:00,34.2,27.1,30.47,North,-999,-999.0,-999.0,75,0.00,,,0.00,332.0,meteohub,2013-12-26 14:59:00,
2013-12-26 10:04:00,34.9,27.5,30.47,North,-999,-999.0,-999.0,74,0.00,,,0.00,371.0,meteohub,2013-12-26 15:04:00,
2013-12-26 10:09:00,35.2,27.1,30.48,North,-999,-999.0,-999.0,72,0.00,,,0.00,301.0,meteohub,2013-12-26 15:09:00,
2013-12-26 10:14:00,35.2,26.1,30.48,North,-999,-999.0,-999.0,69,0.00,,,0.00,369.0,meteohub,2013-12-26 15:14:00,
2013-12-26 10:19:00,35.2,26.1,30.48,North,-999,-999.0,-999.0,69,0.00,,,0.00,290.0,meteohub,2013-12-26 15:19:00,
2013-12-26 10:24:00,34.9,25.7,30.48,North,-999,-999.0,-999.0,69,0.00,,,0.00,102.0,meteohub,2013-12-26 15:24:00,
2013-12-26 10:29:00,34.5,25.7,30.48,North,-999,-999.0,-999.0,70,0.00,,,0.00,366.0,meteohub,2013-12-26 15:29:00,
2013-12-26 10:34:00,35.2,26.4,30.48,North,-999,-999.0,-999.0,70,0.00,,,0.00,411.0,meteohub,2013-12-26 15:34:00,
2013-12-26 10:39:00,36.0,27.1,30.48,North,-999,-999.0,-999.0,70,0.00,,,0.00,404.0,meteohub,2013-12-26 15:39:00,
2013-12-26 10:44:00,36.3,26.8,30.48,North,-999,-999.0,-999.0,68,0.00,,,0.00,448.0,meteohub,2013-12-26 15:44:00,
2013-12-26 10:49:00,36.3,26.8,30.48,North,-999,-999.0,-999.0,68,0.00,,,0.00,185.0,meteohub,2013-12-26 15:49:00,
2013-12-26 10:54:00,35.6,26.1,30.48,North,-999,-999.0,-999.0,68,0.00,,,0.00,114.0,meteohub,2013-12-26 15:54:00,
2013-12-26 11:00:00,35.4,26.2,30.48,North,-999,-999.0,-999.0,69,0.00,,,0.00,397.0,meteohub,2013-12-26 16:00:00,
2013-12-26 11:05:00,35.8,26.6,30.48,North,-999,-999.0,-999.0,69,0.00,,,0.00,392.0,meteohub,2013-12-26 16:05:00,
2013-12-26 11:10:00,37.0,27.5,30.48,North,-999,-999.0,-999.0,68,0.00,,,0.00,420.0,meteohub,2013-12-26 16:10:00,
2013-12-26 11:15:00,37.0,27.1,30.48,North,-999,-999.0,-999.0,67,0.00,,,0.00,422.0,meteohub,2013-12-26 16:15:00,
2013-12-26 11:20:00,36.5,25.9,30.48,North,-999,-999.0,-999.0,65,0.00,,,0.00,95.0,meteohub,2013-12-26 16:20:00,
2013-12-26 11:25:00,36.7,27.5,30.48,North,-999,-999.0,-999.0,69,0.00,,,0.00,432.0,meteohub,2013-12-26 16:25:00,
2013-12-26 11:30:00,36.9,27.0,30.48,North,-999,-999.0,-999.0,67,0.00,,,0.00,485.0,meteohub,2013-12-26 16:30:00,
2013-12-26 11:35:00,37.6,27.3,30.48,North,-999,-999.0,-999.0,66,0.00,,,0.00,510.0,meteohub,2013-12-26 16:35:00,
2013-12-26 11:40:00,37.2,27.0,30.48,North,-999,-999.0,-999.0,66,0.00,,,0.00,494.0,meteohub,2013-12-26 16:40:00,
2013-12-26 11:45:00,37.4,26.8,30.48,North,-999,-999.0,-999.0,65,0.00,,,0.00,452.0,meteohub,2013-12-26 16:45:00,
2013-12-26 11:50:00,37.8,27.1,30.47,North,-999,-999.0,-999.0,65,0.00,,,0.00,457.0,meteohub,2013-12-26 16:50:00,
2013-12-26 11:55:00,38.1,27.0,30.47,North,-999,-999.0,-999.0,64,0.00,,,0.00,461.0,meteohub,2013-12-26 16:55:00,
2013-12-26 12:01:00,37.8,27.1,30.47,North,-999,-999.0,-999.0,65,0.00,,,0.00,452.0,meteohub,2013-12-26 17:01:00,
2013-12-26 12:06:00,38.5,27.3,30.46,North,-999,-999.0,-999.0,64,0.00,,,0.00,454.0,meteohub,2013-12-26 17:06:00,
2013-12-26 12:11:00,38.3,27.1,30.46,North,-999,-999.0,-999.0,64,0.00,,,0.00,454.0,meteohub,2013-12-26 17:11:00,
2013-12-26 12:16:00,38.7,27.5,30.45,North,-999,-999.0,-999.0,64,0.00,,,0.00,468.0,meteohub,2013-12-26 17:16:00,
2013-12-26 12:21:00,39.4,28.2,30.45,North,-999,-999.0,-999.0,64,0.00,,,0.00,466.0,meteohub,2013-12-26 17:21:00,
2013-12-26 12:26:00,39.0,26.8,30.45,North,-999,-999.0,-999.0,61,0.00,,,0.00,461.0,meteohub,2013-12-26 17:26:00,
2013-12-26 12:31:00,39.9,28.0,30.45,North,-999,-999.0,-999.0,62,0.00,,,0.00,459.0,meteohub,2013-12-26 17:31:00,
2013-12-26 12:36:00,39.7,27.9,30.44,North,-999,-999.0,-999.0,62,0.00,,,0.00,466.0,meteohub,2013-12-26 17:36:00,
2013-12-26 12:41:00,39.7,27.9,30.44,North,-999,-999.0,-999.0,62,0.00,,,0.00,462.0,meteohub,2013-12-26 17:41:00,
2013-12-26 12:46:00,39.6,27.7,30.45,North,-999,-999.0,-999.0,62,0.00,,,0.00,468.0,meteohub,2013-12-26 17:46:00,
2013-12-26 12:51:00,39.7,28.2,30.44,North,-999,-999.0,-999.0,63,0.00,,,0.00,464.0,meteohub,2013-12-26 17:51:00,
2013-12-26 12:56:00,40.3,27.5,30.44,North,-999,-999.0,-999.0,60,0.00,,,0.00,464.0,meteohub,2013-12-26 17:56:00,
2013-12-26 13:01:00,40.6,28.2,30.43,North,-999,-999.0,-999.0,61,0.00,,,0.00,461.0,meteohub,2013-12-26 18:01:00,
2013-12-26 13:06:00,40.5,27.7,30.43,North,-999,-999.0,-999.0,60,0.00,,,0.00,464.0,meteohub,2013-12-26 18:06:00,
2013-12-26 13:11:00,40.8,27.7,30.43,North,-999,-999.0,-999.0,59,0.00,,,0.00,459.0,meteohub,2013-12-26 18:11:00,
2013-12-26 13:17:00,41.2,27.9,30.43,North,-999,-999.0,-999.0,59,0.00,,,0.00,454.0,meteohub,2013-12-26 18:17:00,
2013-12-26 13:22:00,41.4,27.3,30.43,North,-999,-999.0,-999.0,57,0.00,,,0.00,448.0,meteohub,2013-12-26 18:22:00,
2013-12-26 13:27:00,41.5,28.8,30.43,North,-999,-999.0,-999.0,60,0.00,,,0.00,445.0,meteohub,2013-12-26 18:27:00,
2013-12-26 13:32:00,41.2,27.5,30.43,North,-999,-999.0,-999.0,58,0.00,,,0.00,438.0,meteohub,2013-12-26 18:32:00,
2013-12-26 13:37:00,41.7,28.9,30.43,North,-999,-999.0,-999.0,60,0.00,,,0.00,443.0,meteohub,2013-12-26 18:37:00,
2013-12-26 13:42:00,41.9,27.9,30.43,North,-999,-999.0,-999.0,57,0.00,,,0.00,436.0,meteohub,2013-12-26 18:42:00,
2013-12-26 13:47:00,41.7,28.4,30.42,North,-999,-999.0,-999.0,59,0.00,,,0.00,429.0,meteohub,2013-12-26 18:47:00,
2013-12-26 13:52:00,42.3,28.0,30.42,North,-999,-999.0,-999.0,57,0.00,,,0.00,422.0,meteohub,2013-12-26 18:52:00,
2013-12-26 13:57:00,42.1,27.9,30.42,North,-999,-999.0,-999.0,57,0.00,,,0.00,415.0,meteohub,2013-12-26 18:57:00,
2013-12-26 14:02:00,42.1,26.2,30.42,North,-999,-999.0,-999.0,53,0.00,,,0.00,406.0,meteohub,2013-12-26 19:02:00,
2013-12-26 14:07:00,42.4,27.5,30.42,West,275,7.0,0.0,55,0.00,,,0.00,404.0,meteohub,2013-12-26 19:07:00,
2013-12-26 14:12:00,41.9,27.0,30.42,SW,225,2.0,9.0,55,0.00,,,0.00,396.0,meteohub,2013-12-26 19:12:00,
2013-12-26 14:17:00,41.7,27.1,30.42,WSW,238,2.0,9.0,56,0.00,,,0.00,383.0,meteohub,2013-12-26 19:17:00,
2013-12-26 14:22:00,42.3,27.3,30.42,West,265,4.0,9.0,55,0.00,,,0.00,381.0,meteohub,2013-12-26 19:22:00,
2013-12-26 14:27:00,42.4,27.5,30.42,West,279,5.0,9.0,55,0.00,,,0.00,369.0,meteohub,2013-12-26 19:27:00,
2013-12-26 14:33:00,42.1,27.1,30.42,SW,223,0.0,9.0,55,0.00,,,0.00,364.0,meteohub,2013-12-26 19:33:00,
2013-12-26 14:38:00,42.4,26.1,30.41,WSW,244,4.0,9.0,52,0.00,,,0.00,357.0,meteohub,2013-12-26 19:38:00,
2013-12-26 14:43:00,42.3,25.0,30.42,West,260,5.0,10.0,50,0.00,,,0.00,348.0,meteohub,2013-12-26 19:43:00,
2013-12-26 14:48:00,41.7,24.4,30.42,WNW,286,4.0,10.0,50,0.00,,,0.00,338.0,meteohub,2013-12-26 19:48:00,
2013-12-26 14:53:00,41.9,26.1,30.42,WSW,258,1.0,11.0,53,0.00,,,0.00,325.0,meteohub,2013-12-26 19:53:00,
2013-12-26 14:58:00,42.6,26.2,30.42,SSW,205,2.0,11.0,52,0.00,,,0.00,313.0,meteohub,2013-12-26 19:58:00,
2013-12-26 15:03:00,42.6,26.6,30.42,WSW,250,6.0,9.0,53,0.00,,,0.00,302.0,meteohub,2013-12-26 20:03:00,
2013-12-26 15:08:00,42.4,25.5,30.41,WNW,290,6.0,9.0,51,0.00,,,0.00,295.0,meteohub,2013-12-26 20:08:00,
2013-12-26 15:13:00,42.4,26.6,30.41,WNW,302,3.0,9.0,53,0.00,,,0.00,287.0,meteohub,2013-12-26 20:13:00,
2013-12-26 15:18:00,42.4,27.0,30.41,West,272,3.0,9.0,54,0.00,,,0.00,274.0,meteohub,2013-12-26 20:18:00,
2013-12-26 15:23:00,42.6,25.7,30.41,SW,215,2.0,8.0,51,0.00,,,0.00,260.0,meteohub,2013-12-26 20:23:00,
2013-12-26 15:28:00,42.4,25.2,30.41,West,276,3.0,8.0,50,0.00,,,0.00,250.0,meteohub,2013-12-26 20:28:00,
2013-12-26 15:34:00,42.6,25.7,30.41,WSW,244,4.0,8.0,51,0.00,,,0.00,237.0,meteohub,2013-12-26 20:34:00,
2013-12-26 15:39:00,42.8,25.9,30.41,WNW,290,3.0,8.0,51,0.00,,,0.00,223.0,meteohub,2013-12-26 20:39:00,
2013-12-26 15:44:00,42.4,25.2,30.41,WSW,257,2.0,6.0,50,0.00,,,0.00,211.0,meteohub,2013-12-26 20:44:00,
2013-12-26 15:49:00,42.6,25.7,30.41,SSW,201,3.0,7.0,51,0.00,,,0.00,197.0,meteohub,2013-12-26 20:49:00,
2013-12-26 15:54:00,42.4,25.5,30.41,West,268,2.0,7.0,51,0.00,,,0.00,185.0,meteohub,2013-12-26 20:54:00,
2013-12-26 15:59:00,42.4,25.2,30.41,West,277,1.0,7.0,50,0.00,,,0.00,171.0,meteohub,2013-12-26 20:59:00,
2013-12-26 16:04:00,42.3,25.0,30.41,West,277,1.0,7.0,50,0.00,,,0.00,156.0,meteohub,2013-12-26 21:04:00,
2013-12-26 16:09:00,42.3,25.3,30.42,WNW,288,0.0,7.0,51,0.00,,,0.00,139.0,meteohub,2013-12-26 21:09:00,
2013-12-26 16:14:00,42.1,25.7,30.42,West,265,3.0,6.0,52,0.00,,,0.00,125.0,meteohub,2013-12-26 21:14:00,
2013-12-26 16:19:00,41.9,25.5,30.42,West,270,1.0,6.0,52,0.00,,,0.00,109.0,meteohub,2013-12-26 21:19:00,
2013-12-26 16:24:00,41.7,25.3,30.42,WNW,296,3.0,6.0,52,0.00,,,0.00,95.0,meteohub,2013-12-26 21:24:00,
2013-12-26 16:29:00,41.7,25.3,30.42,WNW,293,1.0,6.0,52,0.00,,,0.00,79.0,meteohub,2013-12-26 21:29:00,
2013-12-26 16:34:00,41.5,25.2,30.43,WNW,288,2.0,5.0,52,0.00,,,0.00,67.0,meteohub,2013-12-26 21:34:00,
2013-12-26 16:39:00,41.4,25.5,30.43,West,270,3.0,5.0,53,0.00,,,0.00,54.0,meteohub,2013-12-26 21:39:00,
2013-12-26 16:44:00,41.2,25.9,30.43,West,277,1.0,5.0,54,0.00,,,0.00,33.0,meteohub,2013-12-26 21:44:00,
2013-12-26 16:50:00,40.8,25.5,30.43,West,264,2.0,5.0,54,0.00,,,0.00,21.0,meteohub,2013-12-26 21:50:00,
2013-12-26 16:55:00,40.8,25.9,30.43,West,264,0.0,5.0,55,0.00,,,0.00,18.0,meteohub,2013-12-26 21:55:00,
2013-12-26 17:00:00,40.6,25.7,30.43,West,264,0.0,5.0,55,0.00,,,0.00,16.0,meteohub,2013-12-26 22:00:00,
2013-12-26 17:05:00,40.3,25.3,30.43,North,-999,-999.0,5.0,55,0.00,,,0.00,14.0,meteohub,2013-12-26 22:05:00,
2013-12-26 17:10:00,39.9,25.0,30.43,North,-999,-999.0,3.0,55,0.00,,,0.00,12.0,meteohub,2013-12-26 22:10:00,
2013-12-26 17:15:00,39.6,25.2,30.44,North,-999,-999.0,-999.0,56,0.00,,,0.00,9.0,meteohub,2013-12-26 22:15:00,
2013-12-26 17:20:00,39.4,25.3,30.44,North,-999,-999.0,-999.0,57,0.00,,,0.00,7.0,meteohub,2013-12-26 22:20:00,
2013-12-26 17:25:00,39.0,25.2,30.44,North,-999,-999.0,-999.0,57,0.00,,,0.00,5.0,meteohub,2013-12-26 22:25:00,
2013-12-26 17:30:00,38.5,25.0,30.45,North,-999,-999.0,-999.0,58,0.00,,,0.00,0.0,meteohub,2013-12-26 22:30:00,
2013-12-26 17:35:00,37.9,25.0,30.45,North,-999,-999.0,-999.0,59,0.00,,,0.00,0.0,meteohub,2013-12-26 22:35:00,
2013-12-26 17:38:00,37.8,25.2,30.45,North,-999,-999.0,-999.0,60,0.00,,,0.00,0.0,meteohub,2013-12-26 22:38:00,
2013-12-26 17:43:00,37.2,25.0,30.45,North,-999,-999.0,-999.0,61,0.00,,,0.00,0.0,meteohub,2013-12-26 22:43:00,
2013-12-26 17:48:00,36.7,25.0,30.45,North,-999,-999.0,-999.0,62,0.00,,,0.00,0.0,meteohub,2013-12-26 22:48:00,
2013-12-26 17:53:00,36.0,24.6,30.45,North,-999,-999.0,-999.0,63,0.00,,,0.00,0.0,meteohub,2013-12-26 22:53:00,
2013-12-26 17:58:00,35.4,24.8,30.45,North,-999,-999.0,-999.0,65,0.00,,,0.00,0.0,meteohub,2013-12-26 22:58:00,
2013-12-26 18:03:00,34.9,24.3,30.45,North,-999,-999.0,-999.0,65,0.00,,,0.00,0.0,meteohub,2013-12-26 23:03:00,
2013-12-26 18:08:00,34.3,24.4,30.45,North,-999,-999.0,-999.0,67,0.00,,,0.00,0.0,meteohub,2013-12-26 23:08:00,
2013-12-26 18:13:00,34.0,24.3,30.46,North,-999,-999.0,-999.0,67,0.00,,,0.00,0.0,meteohub,2013-12-26 23:13:00,
2013-12-26 18:18:00,33.4,24.4,30.46,North,-999,-999.0,-999.0,69,0.00,,,0.00,0.0,meteohub,2013-12-26 23:18:00,
2013-12-26 18:23:00,32.9,24.3,30.46,North,-999,-999.0,-999.0,70,0.00,,,0.00,0.0,meteohub,2013-12-26 23:23:00,
2013-12-26 18:28:00,32.4,24.1,30.46,North,-999,-999.0,-999.0,71,0.00,,,0.00,0.0,meteohub,2013-12-26 23:28:00,
2013-12-26 18:33:00,32.0,24.1,30.46,North,-999,-999.0,-999.0,72,0.00,,,0.00,0.0,meteohub,2013-12-26 23:33:00,
2013-12-26 18:39:00,31.6,24.3,30.46,North,-999,-999.0,-999.0,74,0.00,,,0.00,0.0,meteohub,2013-12-26 23:39:00,
2013-12-26 18:43:00,31.3,23.9,30.46,North,-999,-999.0,-999.0,74,0.00,,,0.00,0.0,meteohub,2013-12-26 23:43:00,
2013-12-26 18:48:00,31.1,24.1,30.46,North,-999,-999.0,-999.0,75,0.00,,,0.00,0.0,meteohub,2013-12-26 23:48:00,
2013-12-26 18:50:00,30.9,24.3,30.46,North,-999,-999.0,-999.0,76,0.00,,,0.00,0.0,meteohub,2013-12-26 23:50:00,
2013-12-26 18:55:00,30.7,24.4,30.46,North,-999,-999.0,-999.0,77,0.00,,,0.00,0.0,meteohub,2013-12-26 23:55:00,
2013-12-26 19:00:00,30.4,24.3,30.46,North,-999,-999.0,-999.0,78,0.00,,,0.00,0.0,meteohub,2013-12-27 00:00:00,
2013-12-26 19:05:00,30.0,24.3,30.46,North,-999,-999.0,-999.0,79,0.00,,,0.00,0.0,meteohub,2013-12-27 00:05:00,
2013-12-26 19:10:00,29.8,24.4,30.46,North,-999,-999.0,-999.0,80,0.00,,,0.00,0.0,meteohub,2013-12-27 00:10:00,
2013-12-26 19:15:00,29.7,24.6,30.46,North,-999,-999.0,-999.0,81,0.00,,,0.00,0.0,meteohub,2013-12-27 00:15:00,
2013-12-26 19:20:00,29.5,24.6,30.46,North,-999,-999.0,-999.0,82,0.00,,,0.00,0.0,meteohub,2013-12-27 00:20:00,
2013-12-26 19:25:00,29.1,24.6,30.47,North,-999,-999.0,-999.0,83,0.00,,,0.00,0.0,meteohub,2013-12-27 00:25:00,
2013-12-26 19:30:00,28.9,24.1,30.46,North,-999,-999.0,-999.0,82,0.00,,,0.00,0.0,meteohub,2013-12-27 00:30:00,
2013-12-26 19:35:00,28.8,23.9,30.47,North,-999,-999.0,-999.0,82,0.00,,,0.00,0.0,meteohub,2013-12-27 00:35:00,
2013-12-26 19:40:00,28.4,23.5,30.47,North,-999,-999.0,-999.0,82,0.00,,,0.00,0.0,meteohub,2013-12-27 00:40:00,
2013-12-26 19:45:00,28.2,23.7,30.47,North,-999,-999.0,-999.0,83,0.00,,,0.00,0.0,meteohub,2013-12-27 00:45:00,
2013-12-26 19:51:00,28.0,23.5,30.47,North,-999,-999.0,-999.0,83,0.00,,,0.00,0.0,meteohub,2013-12-27 00:51:00,
2013-12-26 19:56:00,27.9,23.4,30.47,North,-999,-999.0,-999.0,83,0.00,,,0.00,0.0,meteohub,2013-12-27 00:56:00,
2013-12-26 20:01:00,27.9,23.7,30.47,North,-999,-999.0,-999.0,84,0.00,,,0.00,0.0,meteohub,2013-12-27 01:01:00,
2013-12-26 20:06:00,27.7,23.5,30.47,North,-999,-999.0,-999.0,84,0.00,,,0.00,0.0,meteohub,2013-12-27 01:06:00,
2013-12-26 20:11:00,27.5,23.5,30.47,North,-999,-999.0,-999.0,85,0.00,,,0.00,0.0,meteohub,2013-12-27 01:11:00,
2013-12-26 20:16:00,27.3,23.4,30.47,North,-999,-999.0,-999.0,85,0.00,,,0.00,0.0,meteohub,2013-12-27 01:16:00,
2013-12-26 20:21:00,27.1,23.2,30.47,North,-999,-999.0,-999.0,85,0.00,,,0.00,0.0,meteohub,2013-12-27 01:21:00,
2013-12-26 20:26:00,27.1,23.5,30.47,North,-999,-999.0,-999.0,86,0.00,,,0.00,0.0,meteohub,2013-12-27 01:26:00,
2013-12-26 20:31:00,27.0,23.4,30.48,North,-999,-999.0,-999.0,86,0.00,,,0.00,0.0,meteohub,2013-12-27 01:31:00,
2013-12-26 20:36:00,26.8,23.2,30.47,North,-999,-999.0,-999.0,86,0.00,,,0.00,0.0,meteohub,2013-12-27 01:36:00,
2013-12-26 20:41:00,26.8,23.2,30.47,North,-999,-999.0,-999.0,86,0.00,,,0.00,0.0,meteohub,2013-12-27 01:41:00,
2013-12-26 20:47:00,26.6,23.0,30.47,North,-999,-999.0,-999.0,86,0.00,,,0.00,0.0,meteohub,2013-12-27 01:47:00,
2013-12-26 20:52:00,26.4,22.8,30.47,North,-999,-999.0,-999.0,86,0.00,,,0.00,0.0,meteohub,2013-12-27 01:52:00,
2013-12-26 20:57:00,26.2,22.6,30.47,North,-999,-999.0,-999.0,86,0.00,,,0.00,0.0,meteohub,2013-12-27 01:57:00,
2013-12-26 21:02:00,26.2,22.8,30.47,North,-999,-999.0,-999.0,87,0.00,,,0.00,0.0,meteohub,2013-12-27 02:02:00,
2013-12-26 21:07:00,26.2,22.8,30.47,North,-999,-999.0,-999.0,87,0.00,,,0.00,0.0,meteohub,2013-12-27 02:07:00,
2013-12-26 21:12:00,26.2,22.8,30.47,North,-999,-999.0,-999.0,87,0.00,,,0.00,0.0,meteohub,2013-12-27 02:12:00,
2013-12-26 21:17:00,26.1,22.6,30.47,North,-999,-999.0,-999.0,87,0.00,,,0.00,0.0,meteohub,2013-12-27 02:17:00,
2013-12-26 21:22:00,26.1,23.0,30.47,North,-999,-999.0,-999.0,88,0.00,,,0.00,0.0,meteohub,2013-12-27 02:22:00,
2013-12-26 21:27:00,26.1,23.0,30.47,North,-999,-999.0,-999.0,88,0.00,,,0.00,0.0,meteohub,2013-12-27 02:27:00,
2013-12-26 21:32:00,26.1,23.0,30.47,North,-999,-999.0,-999.0,88,0.00,,,0.00,0.0,meteohub,2013-12-27 02:32:00,
2013-12-26 21:37:00,25.9,22.8,30.47,North,-999,-999.0,-999.0,88,0.00,,,0.00,0.0,meteohub,2013-12-27 02:37:00,
2013-12-26 21:43:00,25.9,22.8,30.48,North,-999,-999.0,-999.0,88,0.00,,,0.00,0.0,meteohub,2013-12-27 02:43:00,
2013-12-26 21:48:00,25.7,23.0,30.48,North,-999,-999.0,-999.0,89,0.00,,,0.00,0.0,meteohub,2013-12-27 02:48:00,
2013-12-26 21:53:00,25.5,22.8,30.48,North,-999,-999.0,-999.0,89,0.00,,,0.00,0.0,meteohub,2013-12-27 02:53:00,
2013-12-26 21:58:00,25.5,22.8,30.48,North,-999,-999.0,-999.0,89,0.00,,,0.00,0.0,meteohub,2013-12-27 02:58:00,
2013-12-26 22:03:00,25.5,22.8,30.48,North,-999,-999.0,-999.0,89,0.00,,,0.00,0.0,meteohub,2013-12-27 03:03:00,
2013-12-26 22:08:00,25.3,22.6,30.48,North,-999,-999.0,-999.0,89,0.00,,,0.00,0.0,meteohub,2013-12-27 03:08:00,
2013-12-26 22:13:00,25.3,22.6,30.48,North,-999,-999.0,-999.0,89,0.00,,,0.00,0.0,meteohub,2013-12-27 03:13:00,
2013-12-26 22:18:00,25.2,22.5,30.48,North,-999,-999.0,-999.0,89,0.00,,,0.00,0.0,meteohub,2013-12-27 03:18:00,
2013-12-26 22:23:00,25.2,22.6,30.48,North,-999,-999.0,-999.0,90,0.00,,,0.00,0.0,meteohub,2013-12-27 03:23:00,
2013-12-26 22:28:00,25.2,22.5,30.48,North,-999,-999.0,-999.0,89,0.00,,,0.00,0.0,meteohub,2013-12-27 03:28:00,
2013-12-26 22:33:00,25.2,22.6,30.48,North,-999,-999.0,-999.0,90,0.00,,,0.00,0.0,meteohub,2013-12-27 03:33:00,
2013-12-26 22:38:00,25.2,22.8,30.48,North,-999,-999.0,-999.0,91,0.00,,,0.00,0.0,meteohub,2013-12-27 03:38:00,
2013-12-26 22:43:00,25.2,22.8,30.48,North,-999,-999.0,-999.0,91,0.00,,,0.00,0.0,meteohub,2013-12-27 03:43:00,
2013-12-26 22:49:00,25.0,22.6,30.48,North,-999,-999.0,-999.0,91,0.00,,,0.00,0.0,meteohub,2013-12-27 03:49:00,
2013-12-26 22:54:00,25.0,22.6,30.48,North,-999,-999.0,-999.0,91,0.00,,,0.00,0.0,meteohub,2013-12-27 03:54:00,
2013-12-26 22:59:00,25.0,22.6,30.48,North,-999,-999.0,-999.0,91,0.00,,,0.00,0.0,meteohub,2013-12-27 03:59:00,
2013-12-26 23:04:00,25.2,22.8,30.48,North,-999,-999.0,-999.0,91,0.00,,,0.00,0.0,meteohub,2013-12-27 04:04:00,
2013-12-26 23:09:00,25.2,22.8,30.48,North,-999,-999.0,-999.0,91,0.00,,,0.00,0.0,meteohub,2013-12-27 04:09:00,
2013-12-26 23:14:00,25.3,23.4,30.48,North,-999,-999.0,-999.0,92,0.00,,,0.00,0.0,meteohub,2013-12-27 04:14:00,
2013-12-26 23:19:00,25.5,23.5,30.48,North,-999,-999.0,-999.0,92,0.00,,,0.00,0.0,meteohub,2013-12-27 04:19:00,
2013-12-26 23:24:00,25.9,23.9,30.48,North,-999,-999.0,-999.0,92,0.00,,,0.00,0.0,meteohub,2013-12-27 04:24:00,
2013-12-26 23:29:00,26.2,23.9,30.48,North,-999,-999.0,-999.0,91,0.00,,,0.00,0.0,meteohub,2013-12-27 04:29:00,
2013-12-26 23:34:00,26.6,24.3,30.48,North,-999,-999.0,-999.0,91,0.00,,,0.00,0.0,meteohub,2013-12-27 04:34:00,
2013-12-26 23:39:00,27.0,24.1,30.48,North,-999,-999.0,-999.0,89,0.00,,,0.00,0.0,meteohub,2013-12-27 04:39:00,
2013-12-26 23:44:00,27.3,24.4,30.48,North,-999,-999.0,-999.0,89,0.00,,,0.00,0.0,meteohub,2013-12-27 04:44:00,
2013-12-26 23:49:00,27.7,24.6,30.48,North,-999,-999.0,-999.0,88,0.00,,,0.00,0.0,meteohub,2013-12-27 04:49:00,
2013-12-26 23:54:00,27.7,24.3,30.48,North,-999,-999.0,-999.0,87,0.00,,,0.00,0.0,meteohub,2013-12-27 04:54:00,
2013-12-26 23:59:00,27.9,24.3,30.48,North,-999,-999.0,-999.0,86,0.00,,,0.00,0.0,meteohub,2013-12-27 04:59:00,